DW8039 Weather Reports


time (UTC)temp
C
wind
direction
speed
KPH
gust
KPH
rain 1hr
cm
rain 24hr
cm
rain mn
cm
humidity
%
barometer
mb
20260508023903 11 128 3.2 9.7 0.00 0.05 0.00 83 1014.7
20260508023403 11 103 1.6 9.7 0.00 0.05 0.00 83 1014.7
20260508022403 11 113 3.2 16.1 0.00 0.05 0.00 82 1014.7
20260508020904 11 110 1.6 12.9 0.00 0.05 0.00 82 1014.7
20260508020404 11 108 3.2 12.9 0.00 0.05 0.00 82 1014.7
20260508015904 11 105 4.8 14.5 0.00 0.05 0.00 82 1014.7
20260508015404 11 108 4.8 19.3 0.00 0.05 0.00 82 1014.6
20260508013904 11 106 4.8 14.5 0.00 0.05 0.00 82 1014.6
20260508013404 11 104 4.8 12.9 0.00 0.05 0.00 83 1014.7
20260508012904 11 113 6.4 14.5 0.00 0.05 0.00 83 1014.7
20260508012403 11 77 3.2 14.5 0.00 0.05 0.00 83 1014.8
20260508010903 11 109 3.2 9.7 0.00 0.05 0.00 81 1014.9
20260508010403 11 108 4.8 14.5 0.00 0.05 0.00 81 1014.9
20260508005904 11 120 3.2 12.9 0.00 0.05 0.00 81 1015.0
20260508005404 11 100 3.2 19.3 0.00 0.05 0.00 80 1015.0
20260508002903 11 106 4.8 11.3 0.00 0.05 0.00 77 1015.0
20260508002404 11 68 3.2 14.5 0.00 0.05 0.00 76 1015.0
20260508000904 11 99 6.4 14.5 0.00 0.05 0.00 77 1015.1
20260508000405 11 106 3.2 14.5 0.00 0.05 0.00 78 1015.2
20260507235404 11 115 4.8 14.5 0.00 0.05 0.00 79 1015.3
20260507233904 11 130 3.2 4.8 0.00 0.05 0.00 80 1015.3
20260507233404 11 112 3.2 12.9 0.00 0.05 0.00 80 1015.3
20260507232903 11 94 3.2 11.3 0.00 0.05 0.00 80 1015.3
20260507232404 11 132 1.6 16.1 0.00 0.05 0.00 80 1015.2
20260507230404 11 107 6.4 19.3 0.00 0.05 0.00 78 1015.4
20260507223404 11 116 4.8 14.5 0.00 0.05 0.05 74 1015.4
20260507222903 11 113 4.8 14.5 0.00 0.05 0.05 73 1015.4
20260507222404 11 129 6.4 19.3 0.00 0.05 0.05 73 1015.4
20260507220904 11 124 6.4 19.3 0.00 0.05 0.05 74 1015.5
20260507220404 11 104 3.2 19.3 0.00 0.05 0.05 74 1015.5
20260507215904 11 114 3.2 16.1 0.00 0.05 0.05 76 1015.5
20260507215403 11 109 3.2 16.1 0.00 0.05 0.05 76 1015.5
20260507213403 11 101 6.4 16.1 0.00 0.05 0.05 77 1015.5
20260507212403 11 103 4.8 16.1 0.00 0.05 0.05 77 1015.6
20260507210404 11 123 4.8 16.1 0.00 0.05 0.05 78 1015.6
20260507205904 11 126 3.2 19.3 0.00 0.05 0.05 79 1015.5
20260507205404 11 125 1.6 19.3 0.00 0.05 0.05 79 1015.5
20260507203404 11 111 3.2 11.3 0.05 0.05 0.05 79 1015.5
20260507202904 11 78 3.2 9.7 0.05 0.05 0.05 79 1015.4
20260507200904 11 92 3.2 4.8 0.05 0.05 0.05 76 1015.2
20260507200404 11 91 1.6 8.0 0.05 0.05 0.05 75 1015.2
20260507195404 12 101 4.8 16.1 0.05 0.05 0.05 72 1015.1
20260507193904 12 96 1.6 4.8 0.00 0.00 0.00 67 1015.0
20260507193404 12 87 4.8 12.9 0.00 0.00 0.00 66 1015.0
20260507192403 12 148 0.0 12.9 0.00 0.00 0.00 66 1014.9
20260507190904 12 116 3.2 11.3 0.00 0.00 0.00 65 1014.9
20260507190404 12 109 1.6 8.0 0.00 0.00 0.00 64 1014.9
20260507185904 12 119 1.6 14.5 0.00 0.00 0.00 64 1015.0
20260507185403 12 122 3.2 12.9 0.00 0.00 0.00 63 1015.0
20260507183403 12 130 0.0 9.7 0.00 0.00 0.00 62 1015.0
20260507182904 12 139 3.2 12.9 0.00 0.00 0.00 61 1015.0
20260507182403 12 121 1.6 16.1 0.00 0.00 0.00 61 1014.9
20260507180903 13 113 6.4 12.9 0.00 0.00 0.00 59 1014.8
20260507175903 13 106 4.8 14.5 0.00 0.00 0.00 58 1014.9
20260507175403 13 123 4.8 19.3 0.00 0.00 0.00 58 1014.8
20260507173404 13 133 4.8 19.3 0.00 0.00 0.00 58 1014.9
20260507172904 14 132 6.4 14.5 0.00 0.00 0.00 59 1015.0
20260507172405 14 117 4.8 14.5 0.00 0.00 0.00 59 1015.0
20260507170904 15 140 3.2 12.9 0.00 0.00 0.00 59 1014.9
20260507170404 15 150 3.2 8.0 0.00 0.00 0.00 57 1015.0
20260507165904 15 171 3.2 11.3 0.00 0.00 0.00 57 1014.9
20260507165404 15 136 3.2 16.1 0.00 0.03 0.00 61 1014.9
20260507163404 14 134 6.4 19.3 0.00 0.03 0.00 59 1015.0
20260507162903 14 101 8.0 20.9 0.00 0.03 0.00 60 1014.9
20260507162404 14 118 4.8 19.3 0.00 0.03 0.00 61 1015.0
20260507160904 13 128 4.8 12.9 0.00 0.03 0.00 65 1015.1
20260507160404 13 138 1.6 4.8 0.00 0.03 0.00 66 1015.0
20260507155904 13 138 1.6 12.9 0.00 0.03 0.00 68 1015.1
20260507155404 12 128 1.6 11.3 0.00 0.03 0.00 69 1015.1
20260507153903 12 85 1.6 9.7 0.00 0.03 0.00 72 1015.1
20260507153404 12 123 1.6 4.8 0.00 0.03 0.00 73 1015.2
20260507152904 12 141 1.6 8.0 0.00 0.03 0.00 72 1015.2
20260507150904 13 178 3.2 8.0 0.00 0.03 0.00 69 1015.4
20260507145904 13 165 3.2 9.7 0.00 0.03 0.00 69 1015.4
20260507145404 12 141 4.8 14.5 0.00 0.03 0.00 69 1015.4
20260507143904 12 156 8.0 19.3 0.00 0.05 0.00 68 1015.5
20260507143404 13 161 9.7 19.3 0.00 0.08 0.00 68 1015.7
20260507142903 13 157 4.8 16.1 0.00 0.08 0.00 69 1015.7
20260507142404 13 184 8.0 20.9 0.00 0.08 0.00 63 1015.7
20260507140903 13 173 4.8 12.9 0.00 0.08 0.00 64 1015.8
20260507140404 14 170 8.0 22.5 0.00 0.08 0.00 61 1015.9
20260507135904 14 162 9.7 24.1 0.00 0.08 0.00 62 1015.9
20260507133904 14 115 3.2 16.1 0.00 0.08 0.00 63 1015.9
20260507132904 14 168 6.4 16.1 0.00 0.08 0.00 60 1015.9
20260507132403 14 174 8.0 19.3 0.00 0.08 0.00 61 1016.0
20260507130404 13 165 4.8 11.3 0.00 0.08 0.00 63 1016.1
20260507125904 13 164 8.0 16.1 0.00 0.08 0.00 64 1016.1
20260507125404 13 190 3.2 11.3 0.00 0.08 0.00 65 1016.1
20260507123904 12 168 3.2 16.1 0.00 0.08 0.00 67 1016.2
20260507123404 12 165 6.4 16.1 0.00 0.08 0.00 67 1016.2
20260507122903 12 161 4.8 16.1 0.00 0.08 0.00 67 1016.3
20260507122404 12 188 3.2 14.5 0.00 0.08 0.00 67 1016.3
20260507120904 12 159 8.0 14.5 0.00 0.08 0.00 67 1016.3
20260507120404 12 157 8.0 19.3 0.00 0.08 0.00 65 1016.3
20260507115904 13 141 9.7 19.3 0.00 0.08 0.00 65 1016.3
20260507115404 13 171 3.2 14.5 0.00 0.08 0.00 65 1016.4
20260507113904 13 193 4.8 14.5 0.00 0.08 0.00 60 1016.4
20260507113404 13 177 8.0 20.9 0.00 0.08 0.00 58 1016.4
20260507110904 13 168 9.7 19.3 0.00 0.08 0.00 67 1016.3
20260507105403 13 164 3.2 14.5 0.00 0.08 0.00 75 1016.4
20260507103904 13 155 3.2 8.0 0.00 0.08 0.00 76 1016.5
20260507102904 13 195 3.2 11.3 0.00 0.08 0.00 77 1016.5
20260507100404 12 97 3.2 12.9 0.00 0.08 0.00 82 1016.5
20260507095904 12 144 1.6 16.1 0.00 0.08 0.00 83 1016.5
20260507095403 12 153 3.2 14.5 0.00 0.08 0.00 85 1016.5
20260507093904 11 161 3.2 9.7 0.00 0.08 0.00 91 1016.5
20260507092904 11 119 1.6 4.8 0.00 0.08 0.00 93 1016.5
20260507092404 11 137 1.6 11.3 0.00 0.08 0.00 93 1016.5
20260507090904 10 132 1.6 8.0 0.00 0.08 0.00 94 1016.5
20260507085904 10 149 1.6 4.8 0.00 0.08 0.00 94 1016.4
20260507085404 10 149 1.6 11.3 0.00 0.08 0.00 94 1016.5
20260507083904 10 117 3.2 11.3 0.00 0.08 0.00 94 1016.5
20260507082904 10 108 3.2 11.3 0.00 0.08 0.00 94 1016.4
20260507082404 10 127 1.6 9.7 0.00 0.08 0.00 94 1016.4
20260507080903 10 132 3.2 9.7 0.00 0.08 0.00 94 1016.5
20260507080404 10 116 1.6 11.3 0.00 0.08 0.00 94 1016.5
20260507075904 10 123 3.2 11.3 0.00 0.08 0.00 94 1016.4
20260507075404 10 110 3.2 9.7 0.00 0.08 0.00 94 1016.4
20260507073904 9 116 3.2 11.3 0.00 0.08 0.00 94 1016.3
20260507073404 9 132 3.2 9.7 0.00 0.08 0.00 94 1016.3
20260507072903 9 121 3.2 9.7 0.00 0.08 0.00 94 1016.3
20260507070904 9 142 3.2 8.0 0.00 0.08 0.00 94 1016.1
20260507070404 9 98 1.6 4.8 0.00 0.08 0.00 94 1016.1
20260507065904 9 95 3.2 4.8 0.00 0.08 0.00 94 1016.1
20260507065404 9 94 0.0 1.6 0.00 0.08 0.00 94 1016.1
20260507063903 8 94 0.0 0.0 0.00 0.08 0.00 94 1016.1
20260507063404 8 94 0.0 1.6 0.00 0.08 0.00 94 1016.1
20260507062904 8 92 0.0 4.8 0.00 0.08 0.00 94 1016.0
20260507062403 8 98 1.6 9.7 0.00 0.08 0.00 94 1015.9
20260507060403 8 118 3.2 9.7 0.00 0.08 0.00 94 1015.8
20260507055904 8 105 1.6 9.7 0.00 0.08 0.00 94 1015.8
20260507055405 8 117 1.6 4.8 0.00 0.08 0.00 94 1015.7
20260507053904 7 112 0.0 3.2 0.00 0.08 0.00 94 1015.7
20260507053403 7 113 1.6 4.8 0.00 0.08 0.00 94 1015.7
20260507052904 7 109 0.0 0.0 0.00 0.08 0.00 94 1015.7
20260507050904 7 109 0.0 3.2 0.00 0.08 0.00 94 1015.6
20260507050404 7 108 0.0 0.0 0.00 0.08 0.00 94 1015.5
20260507045904 7 108 1.6 3.2 0.00 0.08 0.00 94 1015.5
20260507045404 7 109 1.6 3.2 0.00 0.08 0.00 94 1015.5
20260507043904 7 107 0.0 4.8 0.00 0.08 0.00 94 1015.5
20260507042905 7 111 1.6 4.8 0.00 0.08 0.00 94 1015.4
20260507042403 7 111 0.0 3.2 0.00 0.08 0.00 94 1015.4
20260507040404 7 106 1.6 3.2 0.00 0.08 0.00 93 1015.4
20260507035904 7 110 0.0 0.0 0.00 0.08 0.00 94 1015.4
20260507035404 7 111 0.0 0.0 0.00 0.08 0.00 94 1015.3
20260507033905 7 113 0.0 0.0 0.00 0.08 0.00 93 1015.4
20260507032403 7 115 0.0 4.8 0.00 0.08 0.00 93 1015.3
20260507030903 7 112 0.0 3.2 0.00 0.08 0.00 93 1015.3
20260507030404 7 110 1.6 4.8 0.00 0.08 0.00 93 1015.3
20260507025904 7 113 1.6 4.8 0.00 0.08 0.00 93 1015.3